DB0HOL-4 Weather Reports


Display with metric or nautical units.
time (UTC)temp
F
wind
direction
speed
MPH
gust
MPH
rain 1hr
in
rain 24hr
in
rain mn
in
humidity
%
barometer
mb
20260506132636 45 355 2.0 3.0 0.00 1.45 0.93 99 1004.7
20260506125637 45 0 2.0 4.0 0.00 1.45 0.93 99 1004.4
20260506122636 44 3 5.0 5.0 0.00 1.45 0.93 99 1004.4
20260506115637 44 5 2.0 3.0 0.00 1.45 0.93 99 1004.4
20260506112636 44 7 1.0 2.0 0.00 1.45 0.93 99 1004.4
20260506105637 44 25 3.0 4.0 0.00 1.45 0.93 99 1004.0
20260506102637 44 14 2.0 3.0 0.00 1.45 0.93 99 1003.7
20260506095637 45 43 0.0 1.0 0.00 1.44 0.92 99 1003.3
20260506092636 45 25 0.0 2.0 0.00 1.44 0.92 99 1003.3
20260506085637 44 20 3.0 4.0 0.00 1.41 0.89 99 1003.3
20260506082637 44 28 4.0 5.0 0.00 1.34 0.82 99 1003.0
20260506072636 45 25 3.0 4.0 0.00 1.26 0.74 99 1003.0
20260506043351 47 39 1.0 3.0 0.00 1.09 0.56 99 1003.0
20260506042637 47 39 1.0 3.0 0.00 1.09 0.56 99 1003.0
20260506035637 47 32 0.0 0.0 0.00 1.04 0.52 99 1003.0
20260506032714 47 39 0.0 1.0 0.00 0.99 0.47 99 1003.7
20260506032637 47 39 0.0 1.0 0.00 0.99 0.47 99 1003.7
20260506025740 48 38 0.0 1.0 0.00 0.92 0.40 99 1003.7
20260506025637 48 38 0.0 1.0 0.00 0.92 0.40 99 1003.7
20260506022638 48 31 0.0 0.0 0.00 0.86 0.34 99 1004.0
20260506015637 48 39 0.0 0.0 0.00 0.81 0.28 99 1004.0
20260506012637 48 25 0.0 0.0 0.00 0.74 0.22 99 1004.4
20260506005637 48 37 0.0 1.0 0.00 0.70 0.18 99 1004.4
20260506002637 48 46 0.0 0.0 0.00 0.64 0.12 99 1004.7
20260505235637 48 42 1.0 2.0 0.00 0.59 0.07 99 1005.0
20260505232637 48 31 0.0 2.0 0.00 0.55 0.03 99 1005.0
20260505225637 49 60 0.0 2.0 0.00 0.53 0.01 99 1005.0
20260505222637 49 39 1.0 2.0 0.00 0.50 0.17 99 1005.0
20260505215637 50 11 3.0 4.0 0.00 0.46 0.13 99 1005.4
20260505212636 50 57 0.0 1.0 0.00 0.41 0.08 99 1005.4
20260505205637 50 48 0.0 0.0 0.00 0.39 0.06 99 1005.4
20260505202637 50 73 2.0 3.0 0.00 0.38 0.05 99 1005.0
20260505195637 50 49 2.0 4.0 0.00 0.38 0.05 99 1005.0
20260505192637 51 14 2.0 4.0 0.00 0.38 0.05 99 1005.4
20260505185636 51 38 4.0 6.0 0.00 0.38 0.05 99 1005.4
20260505182637 51 15 3.0 4.0 0.00 0.38 0.05 99 1005.4
20260505175637 52 31 1.0 2.0 0.00 0.38 0.05 99 1005.4
20260505172637 52 25 2.0 3.0 0.00 0.38 0.05 99 1005.7
20260505165636 52 51 0.0 2.0 0.00 0.38 0.05 99 1006.0
20260505162636 53 23 2.0 3.0 0.00 0.38 0.05 99 1005.7
20260505152636 54 24 0.0 3.0 0.00 0.38 0.05 97 1006.0